• In Hungary
  • List of Countries
  • For 7 days
  • Water Temperature
  • Satellite Maps
  • Weather Map
  • News
  • Weather Widgets
  • user-avatar
    Login

    Hourly Weather Oboz

    Today, 16 July, Monday

    Time Temperature Precipitation Wind Pressure Humidity
    00:00 +21°C° 1.8 mm 2 mps 743 mmHg 90%
    01:00 +21°C° 0.3 mm 2 mps 743 mmHg 90%
    02:00 +20°C° 0.3 mm 2 mps 743 mmHg 91%
    03:00 +20°C° 0 mm 2 mps 743 mmHg 91%
    04:00 +20°C° 0.7 mm 2 mps 743 mmHg 91%
    05:00 +20°C° 0.7 mm 2 mps 743 mmHg 92%
    06:00 +20°C° 0.7 mm 2 mps 743 mmHg 92%
    07:00 +22°C° 0.4 mm 3 mps 743 mmHg 88%
    08:00 +25°C° 0.4 mm 3 mps 743 mmHg 84%
    09:00 +26°C° 0 mm 4 mps 743 mmHg 78%
    10:00 +27°C° 1.5 mm 4 mps 743 mmHg 74%
    11:00 +28°C° 1.5 mm 4 mps 742 mmHg 70%
    12:00 +29°C° 1.5 mm 5 mps 742 mmHg 67%
    13:00 +29°C° 1 mm 5 mps 742 mmHg 66%
    14:00 +29°C° 1 mm 5 mps 742 mmHg 66%
    15:00 +30°C° 1 mm 5 mps 741 mmHg 67%
    16:00 +29°C° 1.1 mm 4 mps 741 mmHg 70%
    17:00 +28°C° 1.1 mm 4 mps 741 mmHg 74%
    18:00 +27°C° 1.1 mm 4 mps 741 mmHg 77%
    19:00 +26°C° 0.6 mm 4 mps 741 mmHg 81%
    20:00 +25°C° 0.6 mm 4 mps 741 mmHg 84%
    21:00 +23°C° 0.6 mm 4 mps 741 mmHg 87%
    22:00 +22°C° 0.3 mm 4 mps 741 mmHg 89%
    23:00 +22°C° 0.3 mm 4 mps 740 mmHg 90%

    Tomorrow, 17 July, Tuesday

    Time Temperature Precipitation Wind Pressure Humidity
    00:00 +22°C° 0.3 mm 3 mps 740 mmHg 91%
    01:00 +21°C° 0.3 mm 4 mps 740 mmHg 92%
    02:00 +21°C° 0.3 mm 4 mps 740 mmHg 93%
    03:00 +21°C° 0.3 mm 4 mps 740 mmHg 94%
    04:00 +21°C° 0.1 mm 4 mps 740 mmHg 94%
    05:00 +21°C° 0.1 mm 4 mps 740 mmHg 93%
    06:00 +21°C° 0.1 mm 4 mps 739 mmHg 93%
    07:00 +21°C° 0.2 mm 4 mps 739 mmHg 91%
    08:00 +22°C° 0.2 mm 4 mps 739 mmHg 88%
    09:00 +23°C° 0.2 mm 5 mps 739 mmHg 86%
    10:00 +23°C° 0.4 mm 5 mps 739 mmHg 84%
    11:00 +25°C° 0.4 mm 5 mps 739 mmHg 82%
    12:00 +25°C° 0.4 mm 5 mps 739 mmHg 80%
    13:00 +25°C° 0.5 mm 5 mps 739 mmHg 81%
    14:00 +25°C° 0.5 mm 4 mps 738 mmHg 82%
    15:00 +25°C° 0.5 mm 4 mps 738 mmHg 82%
    16:00 +25°C° 0.6 mm 4 mps 738 mmHg 84%
    17:00 +23°C° 0.6 mm 4 mps 738 mmHg 85%
    18:00 +23°C° 0.6 mm 4 mps 737 mmHg 87%
    19:00 +22°C° 0.2 mm 4 mps 737 mmHg 89%
    20:00 +21°C° 0.2 mm 4 mps 737 mmHg 91%
    21:00 +20°C° 0.2 mm 4 mps 737 mmHg 94%
    22:00 +20°C° 0.2 mm 4 mps 737 mmHg 94%
    23:00 +20°C° 0.2 mm 4 mps 736 mmHg 95%

    Day after tomorrow, 18 July, Wednesday

    Time Temperature Precipitation Wind Pressure Humidity
    00:00 +20°C° 0.2 mm 4 mps 736 mmHg 95%
    01:00 +20°C° 0.4 mm 4 mps 736 mmHg 95%
    02:00 +20°C° 0.4 mm 4 mps 736 mmHg 96%
    03:00 +19°C° 0.4 mm 4 mps 735 mmHg 96%
    04:00 +19°C° 0.3 mm 4 mps 735 mmHg 96%
    05:00 +19°C° 0.3 mm 3 mps 735 mmHg 96%
    06:00 +19°C° 0.3 mm 3 mps 735 mmHg 96%
    07:00 +20°C° 0.1 mm 3 mps 735 mmHg 95%
    08:00 +20°C° 0.1 mm 3 mps 735 mmHg 93%
    09:00 +20°C° 0.1 mm 3 mps 735 mmHg 92%
    10:00 +21°C° 0.1 mm 2 mps 735 mmHg 89%
    11:00 +21°C° 0.1 mm 2 mps 736 mmHg 86%
    12:00 +23°C° 0.1 mm 2 mps 736 mmHg 84%
    13:00 +23°C° 0.2 mm 2 mps 736 mmHg 81%
    14:00 +24°C° 0.2 mm 2 mps 736 mmHg 78%
    15:00 +25°C° 0.2 mm 2 mps 736 mmHg 76%
    16:00 +25°C° 0.5 mm 2 mps 736 mmHg 77%
    17:00 +25°C° 0.5 mm 2 mps 736 mmHg 77%
    18:00 +24°C° 0.5 mm 2 mps 736 mmHg 78%
    19:00 +23°C° 0.2 mm 2 mps 736 mmHg 84%
    20:00 +21°C° 0.2 mm 2 mps 737 mmHg 89%
    21:00 +20°C° 0.2 mm 2 mps 737 mmHg 94%
    22:00 +19°C° 0.1 mm 2 mps 737 mmHg 95%
    23:00 +19°C° 0.1 mm 2 mps 737 mmHg 95%

    19 July, Thursday

    Time Temperature Precipitation Wind Pressure Humidity
    00:00 +19°C° 0.1 mm 2 mps 737 mmHg 96%
    01:00 +19°C° 0.1 mm 2 mps 737 mmHg 96%
    02:00 +19°C° 0.1 mm 2 mps 737 mmHg 97%
    03:00 +19°C° 0.1 mm 2 mps 737 mmHg 97%
    04:00 +19°C° 0 mm 2 mps 738 mmHg 97%
    05:00 +19°C° 0 mm 2 mps 738 mmHg 96%
    06:00 +20°C° 0 mm 2 mps 738 mmHg 96%
    07:00 +20°C° 0.1 mm 2 mps 738 mmHg 92%
    08:00 +21°C° 0.1 mm 3 mps 739 mmHg 89%
    09:00 +22°C° 0.1 mm 3 mps 739 mmHg 85%
    10:00 +24°C° 0.5 mm 3 mps 739 mmHg 81%
    11:00 +25°C° 0.5 mm 4 mps 739 mmHg 78%
    12:00 +26°C° 0.5 mm 4 mps 740 mmHg 74%
    13:00 +27°C° 1.2 mm 4 mps 740 mmHg 75%
    14:00 +27°C° 1.2 mm 5 mps 740 mmHg 76%
    15:00 +27°C° 1.2 mm 5 mps 740 mmHg 77%
    16:00 +26°C° 1 mm 5 mps 740 mmHg 79%
    17:00 +26°C° 1 mm 4 mps 740 mmHg 81%
    18:00 +26°C° 1 mm 4 mps 741 mmHg 83%
    19:00 +25°C° 0.4 mm 4 mps 741 mmHg 86%
    20:00 +23°C° 0.4 mm 4 mps 741 mmHg 88%
    21:00 +22°C° 0.4 mm 3 mps 741 mmHg 90%
    22:00 +21°C° 0.1 mm 3 mps 741 mmHg 91%
    23:00 +21°C° 0.1 mm 3 mps 742 mmHg 92%

    20 July, Friday

    Time Temperature Precipitation Wind Pressure Humidity
    00:00 +20°C° 0.1 mm 3 mps 742 mmHg 92%
    01:00 +20°C° 0 mm 3 mps 742 mmHg 93%
    02:00 +20°C° 0 mm 2 mps 742 mmHg 93%
    03:00 +19°C° 0 mm 2 mps 742 mmHg 94%
    04:00 +20°C° 0.1 mm 2 mps 742 mmHg 93%
    05:00 +20°C° 0.1 mm 2 mps 743 mmHg 92%
    06:00 +20°C° 0.1 mm 3 mps 743 mmHg 92%
    07:00 +22°C° 0.1 mm 3 mps 743 mmHg 87%
    08:00 +24°C° 0.1 mm 3 mps 743 mmHg 83%
    09:00 +26°C° 0.1 mm 3 mps 743 mmHg 78%
    10:00 +27°C° 0.9 mm 3 mps 743 mmHg 74%
    11:00 +28°C° 0.9 mm 3 mps 743 mmHg 69%
    12:00 +29°C° 0.9 mm 4 mps 743 mmHg 65%
    13:00 +29°C° 0.3 mm 3 mps 743 mmHg 64%
    14:00 +29°C° 0.3 mm 3 mps 743 mmHg 62%
    15:00 +30°C° 0.3 mm 3 mps 743 mmHg 61%
    16:00 +29°C° 0.5 mm 3 mps 743 mmHg 65%
    17:00 +29°C° 0.5 mm 3 mps 743 mmHg 69%
    18:00 +28°C° 0.5 mm 3 mps 743 mmHg 74%
    19:00 +27°C° 0.1 mm 2 mps 743 mmHg 78%
    20:00 +25°C° 0.1 mm 2 mps 743 mmHg 82%
    21:00 +24°C° 0.1 mm 2 mps 743 mmHg 87%
    22:00 +23°C° 0 mm 2 mps 743 mmHg 88%
    23:00 +23°C° 0 mm 2 mps 743 mmHg 89%

    21 July, Saturday

    Time Temperature Precipitation Wind Pressure Humidity
    00:00 +21°C° 0 mm 2 mps 743 mmHg 90%
    01:00 +21°C° 0 mm 2 mps 743 mmHg 91%
    02:00 +20°C° 0 mm 2 mps 743 mmHg 92%
    03:00 +20°C° 0 mm 2 mps 744 mmHg 92%
    04:00 +20°C° 0 mm 2 mps 744 mmHg 92%
    05:00 +21°C° 0 mm 2 mps 743 mmHg 91%
    06:00 +21°C° 0 mm 2 mps 743 mmHg 91%
    07:00 +24°C° 0 mm 2 mps 743 mmHg 84%
    08:00 +25°C° 0 mm 2 mps 744 mmHg 78%
    09:00 +27°C° 0 mm 3 mps 744 mmHg 71%
    10:00 +28°C° 0.4 mm 3 mps 744 mmHg 66%
    11:00 +29°C° 0.4 mm 3 mps 744 mmHg 61%
    12:00 +30°C° 0.4 mm 3 mps 743 mmHg 56%
    13:00 +30°C° 0.4 mm 3 mps 743 mmHg 56%
    14:00 +30°C° 0.4 mm 3 mps 743 mmHg 56%
    15:00 +30°C° 0.4 mm 3 mps 743 mmHg 57%
    16:00 +30°C° 0.6 mm 2 mps 743 mmHg 62%
    17:00 +29°C° 0.6 mm 2 mps 743 mmHg 67%
    18:00 +29°C° 0.6 mm 2 mps 743 mmHg 72%
    19:00 +27°C° 0.5 mm 2 mps 743 mmHg 75%
    20:00 +26°C° 0.5 mm 2 mps 743 mmHg 78%
    21:00 +24°C° 0.5 mm 2 mps 743 mmHg 82%
    22:00 +24°C° 0.1 mm 2 mps 743 mmHg 84%
    23:00 +23°C° 0.1 mm 2 mps 743 mmHg 85%
    Show more